FW6760 Weather Reports


Display with metric or nautical units.
time (UTC)temp
F
wind
direction
speed
MPH
gust
MPH
rain 1hr
in
rain 24hr
in
rain mn
in
humidity
%
barometer
mb
20260905135412 65 356 1.0 4.0 0.00 0.00 0.00 74 1138.8
20260905134413 65 317 3.0 8.0 0.00 0.00 0.00 75 1138.8
20260905133513 65 42 4.0 6.0 0.00 0.00 0.00 75 1138.8
20260905132528 65 346 3.0 7.0 0.00 0.00 0.00 73 1138.8
20260905131612 65 36 5.0 9.0 0.00 0.00 0.00 73 1138.8
20260905125614 66 58 3.0 4.0 0.00 0.00 0.00 74 1138.8
20260905124612 65 310 4.0 6.0 0.00 0.00 0.00 74 1138.5
20260905123630 65 355 2.0 10.0 0.00 0.00 0.00 76 1138.5
20260905122614 64 353 1.0 3.0 0.00 0.00 0.00 77 1138.4
20260905121712 63 339 2.0 4.0 0.00 0.00 0.00 78 1138.3
20260905120712 63 354 1.0 3.0 0.00 0.00 0.00 77 1138.3
20260905114713 62 335 4.0 8.0 0.00 0.00 0.00 81 1138.1
20260905113714 61 358 2.0 3.0 0.00 0.00 0.00 85 1138.0
20260905111714 59 14 0.0 2.0 0.00 0.00 0.00 90 1137.9
20260905110811 58 315 0.0 0.0 0.00 0.00 0.00 91 1137.9
20260905104912 57 315 2.0 2.0 0.00 0.00 0.00 91 1137.6
20260905103912 58 90 0.0 1.0 0.00 0.00 0.00 90 1137.6
20260905101912 59 309 5.0 7.0 0.00 0.00 0.00 88 1137.3
20260905100914 59 313 5.0 7.0 0.00 0.00 0.00 90 1137.2
20260905094913 59 315 4.0 7.0 0.00 0.00 0.00 89 1137.2
20260905093913 59 315 4.0 8.0 0.00 0.00 0.00 89 1137.1
20260905093013 59 316 4.0 6.0 0.00 0.00 0.00 89 1137.2
20260905092016 59 318 4.0 7.0 0.00 0.00 0.00 90 1137.1
20260905091113 59 320 5.0 7.0 0.00 0.00 0.00 89 1137.1
20260905090112 59 306 5.0 7.0 0.00 0.00 0.00 90 1137.1
20260905085112 59 319 5.0 8.0 0.00 0.00 0.00 88 1137.1
20260905084128 59 311 6.0 8.0 0.00 0.00 0.00 88 1137.1
20260905083214 59 314 5.0 7.0 0.00 0.00 0.00 89 1137.3
20260905082313 59 321 5.0 8.0 0.00 0.00 0.00 90 1137.1
20260905081330 59 42 0.0 3.0 0.00 0.00 0.00 88 1137.2
20260905074428 59 312 4.0 6.0 0.00 0.00 0.00 89 1137.1
20260905073516 59 312 3.0 5.0 0.00 0.00 0.00 89 1137.3
20260905072515 59 315 3.0 5.0 0.00 0.00 0.00 88 1137.4
20260905071529 59 315 4.0 5.0 0.00 0.00 0.00 87 1137.6
20260905070613 59 313 3.0 6.0 0.00 0.00 0.00 86 1137.4
20260905064613 60 315 4.0 5.0 0.00 0.00 0.00 86 1137.6
20260905063612 60 315 5.0 6.0 0.00 0.00 0.00 85 1137.7
20260905062613 60 315 3.0 4.0 0.00 0.00 0.00 85 1137.6
20260905061613 61 315 3.0 4.0 0.00 0.00 0.00 85 1137.8
20260905060613 61 315 3.0 5.0 0.00 0.00 0.00 83 1137.9
20260905054711 62 316 3.0 5.0 0.00 0.00 0.00 83 1138.0
20260905053712 62 315 3.0 5.0 0.00 0.00 0.00 82 1138.1
20260905052714 62 316 5.0 7.0 0.00 0.00 0.00 82 1138.2
20260905051712 62 315 5.0 7.0 0.00 0.00 0.00 80 1138.4
20260905050712 62 315 3.0 5.0 0.00 0.00 0.00 80 1138.6
20260905044813 62 307 5.0 6.0 0.00 0.00 0.00 79 1138.7
20260905043912 62 286 5.0 8.0 0.00 0.00 0.00 78 1138.7
20260905042912 63 270 5.0 6.0 0.00 0.00 0.00 77 1138.7
20260905041912 62 278 3.0 5.0 0.00 0.00 0.00 80 1138.8
20260905040911 63 315 2.0 3.0 0.00 0.00 0.00 77 1138.5
20260905035925 63 299 4.0 5.0 0.00 0.00 0.00 77 1138.3
20260905033924 63 292 3.0 5.0 0.00 0.00 0.00 77 1138.5
20260905032941 63 292 3.0 4.0 0.00 0.00 0.00 75 1138.7
20260905032025 64 292 2.0 3.0 0.00 0.00 0.00 75 1138.8
20260905031025 63 292 3.0 4.0 0.00 0.00 0.00 76 1138.8
20260905030024 63 315 3.0 3.0 0.00 0.00 0.00 78 1138.7
20260905025024 62 315 2.0 3.0 0.00 0.00 0.00 82 1138.4
20260905023123 63 315 2.0 3.0 0.00 0.00 0.00 79 1138.6
20260905021123 62 315 1.0 2.0 0.00 0.00 0.00 81 1138.9
20260905020123 62 292 3.0 4.0 0.00 0.00 0.00 82 1139.0
20260905015124 62 315 2.0 2.0 0.00 0.00 0.00 84 1138.9
20260905013223 65 315 0.0 0.0 0.00 0.00 0.00 75 1138.8
20260905012224 65 315 2.0 4.0 0.00 0.00 0.00 74 1138.8
20260905010223 66 315 2.0 4.0 0.00 0.00 0.00 71 1138.9
20260905004223 67 270 4.0 5.0 0.00 0.00 0.00 70 1138.8
20260905003322 67 270 4.0 6.0 0.00 0.00 0.00 72 1138.7
20260905000325 65 315 2.0 2.0 0.00 0.00 0.00 75 1138.7
20260904235325 65 315 1.0 2.0 0.00 0.00 0.00 75 1138.5
20260904234323 64 315 2.0 3.0 0.00 0.00 0.00 77 1138.5
20260904233323 65 315 1.0 1.0 0.00 0.00 0.00 75 1138.3
20260904232323 67 315 0.0 1.0 0.00 0.00 0.00 70 1138.3
20260904231324 68 292 2.0 3.0 0.00 0.00 0.00 67 1138.3
20260904230324 69 292 2.0 2.0 0.00 0.00 0.00 65 1138.1
20260904225325 69 281 3.0 5.0 0.00 0.00 0.00 64 1138.1
20260904224423 70 292 3.0 4.0 0.00 0.00 0.00 62 1137.9
20260904223423 70 315 3.0 4.0 0.00 0.00 0.00 63 1137.9
20260904222440 71 315 4.0 6.0 0.00 0.00 0.00 62 1137.9
20260904221425 71 315 0.0 3.0 0.00 0.00 0.00 61 1137.6
20260904215423 73 315 2.0 3.0 0.00 0.00 0.00 56 1137.9
20260904213422 74 337 2.0 3.0 0.00 0.00 0.00 57 1137.9
20260904212424 73 316 5.0 8.0 0.00 0.00 0.00 57 1137.9
20260904211423 73 317 4.0 7.0 0.00 0.00 0.00 57 1137.9
20260904210523 73 315 3.0 4.0 0.00 0.00 0.00 59 1137.9
20260904204540 71 315 4.0 5.0 0.00 0.00 0.00 57 1138.3
20260904203621 71 321 6.0 9.0 0.00 0.00 0.00 56 1138.0
20260904202640 72 316 5.0 7.0 0.00 0.00 0.00 57 1138.0
20260904201724 74 325 5.0 7.0 0.00 0.00 0.00 55 1137.9
20260904200738 75 310 5.0 8.0 0.00 0.00 0.00 57 1137.7
20260904194922 74 276 4.0 6.0 0.00 0.00 0.00 56 1138.1
20260904193924 73 300 3.0 6.0 0.00 0.00 0.00 57 1138.1
20260904192923 73 1 3.0 6.0 0.00 0.00 0.00 56 1138.2
20260904192023 74 344 4.0 8.0 0.00 0.00 0.00 57 1138.2
20260904191023 72 282 3.0 5.0 0.00 0.00 0.00 59 1138.2
20260904190023 71 315 4.0 10.0 0.00 0.00 0.00 59 1138.5
20260904185038 73 310 5.0 8.0 0.00 0.00 0.00 57 1138.3
20260904184023 74 317 6.0 9.0 0.00 0.00 0.00 58 1138.3
20260904183024 74 319 5.0 10.0 0.00 0.00 0.00 58 1138.4
20260904182024 73 300 5.0 9.0 0.00 0.00 0.00 56 1138.5
20260904181023 73 315 5.0 9.0 0.00 0.00 0.00 56 1138.7
20260904180039 74 319 5.0 9.0 0.00 0.00 0.00 52 1138.7
20260904175023 75 319 6.0 10.0 0.00 0.00 0.00 53 1138.5
20260904174026 74 319 4.0 7.0 0.00 0.00 0.00 54 1138.5
20260904173123 73 272 6.0 8.0 0.00 0.00 0.00 57 1138.3
20260904171140 74 315 8.0 12.0 0.00 0.00 0.00 55 1138.5
20260904170126 74 314 2.0 4.0 0.00 0.00 0.00 56 1138.7
20260904164140 74 317 6.0 10.0 0.00 0.00 0.00 55 1138.8
20260904163223 74 325 8.0 11.0 0.00 0.00 0.00 56 1138.7
20260904162322 74 298 5.0 9.0 0.00 0.00 0.00 57 1138.8
20260904161323 73 328 3.0 7.0 0.00 0.00 0.00 57 1138.8
20260904155422 73 305 8.0 11.0 0.00 0.00 0.00 57 1139.1
20260904153422 73 319 6.0 9.0 0.00 0.00 0.00 60 1139.0
20260904151424 73 316 6.0 9.0 0.00 0.00 0.00 60 1139.2
20260904150522 73 315 6.0 9.0 0.00 0.00 0.00 61 1139.4
20260904145523 72 321 6.0 16.0 0.00 0.00 0.00 62 1139.3
20260904144523 72 320 7.0 10.0 0.00 0.00 0.00 64 1139.2
20260904142524 72 299 7.0 11.0 0.00 0.00 0.00 67 1139.4
20260904141623 71 323 8.0 12.0 0.00 0.00 0.00 69 1139.3
20260904140623 71 317 6.0 9.0 0.00 0.00 0.00 70 1139.3